EHI
0 0 0 0 0 0 0 0 1 0 0 0 1 2 4 5 4 3 3 2 1 2 2 2 2 3 4 5 4 2 1 0 0 0 0 0 0 0 1 2 2 1 1 0
0 0 0 0 0 0 0 1 1 1 0 0 1 2 3 5 5 3 2 1 1 2 1 1 2 4 5 5 4 2 1 0 0 0 0 0 0 0 0 1 1 1 1 2
0 0 0 0 0 0 0 1 1 1 0 0 1 1 1 3 5 3 1 0 1 1 1 1 3 5 6 5 4 2 1 0 1 1 1 1 1 0 0 0 0 0 2 4
0 0 0 0 0 0 0 0 0 0 0 0 0 0 0 1 2 2 2 1 0 0 0 2 5 7 6 5 4 3 1 1 2 2 2 2 2 1 0 0 0 0 1 3
0 0 0 0 0 0 0 0 0 0 0 0 0 0 0 0 0 1 1 1 0 0 1 3 6 8 8 7 6 4 2 2 3 3 3 3 3 2 1 0 0 0 0 1
0 0 0 0 0 0 0 0 0 0 0 0 0 0 0 0 0 0 0 0 0 1 2 3 5 8 9 9 8 5 2 1 3 3 4 4 4 3 2 2 2 1 0 1
0 0 0 0 0 0 0 0 0 0 0 0 0 0 0 0 0 0 0 1 1 3 4 4 5 7 10 11 9 5 1 1 3 4 5 6 7 5 4 4 4 2 1 2
0 0 0 0 0 0 0 0 0 0 0 0 0 0 0 0 0 0 1 2 3 4 4 5 6 7 9 11 9 5 2 2 3 5 6 7 7 5 3 4 3 2 2 2
0 0 0 0 0 0 0 0 0 0 0 0 0 0 0 0 0 1 3 4 4 3 4 4 4 5 7 10 11 9 7 6 6 6 6 6 6 4 2 2 2 2 2 2
0 0 0 0 0 0 0 0 0 0 0 0 0 0 0 0 0 2 5 5 4 4 4 3 3 3 5 8 11 12 12 11 10 7 5 6 5 4 3 2 3 3 3 2
0 0 0 0 0 0 0 0 0 0 0 0 0 0 0 0 1 3 5 5 4 5 5 4 3 4 5 7 9 11 13 12 10 6 4 5 5 6 6 5 5 4 4 3
0 0 0 0 0 0 0 0 0 0 0 0 0 0 0 0 1 3 4 4 4 5 4 4 5 6 7 7 7 9 11 10 7 5 4 4 5 5 5 5 4 4 4 4
0 0 0 0 0 0 0 0 0 0 0 0 0 0 1 1 2 2 3 2 3 4 4 5 6 7 7 8 9 10 11 10 7 6 7 7 5 4 3 3 3 4 5 5
0 0 0 0 0 0 0 0 0 0 0 0 0 0 1 1 1 2 3 4 4 4 5 7 8 8 9 9 10 11 13 12 11 11 12 12 9 6 4 4 5 5 4 5
0 0 0 0 0 0 0 0 0 0 1 1 1 1 1 2 3 4 7 8 7 6 7 10 11 10 10 10 11 12 14 15 16 17 18 16 13 10 8 8 8 7 5 5
0 0 0 0 0 0 0 0 0 0 1 2 3 3 3 4 7 10 11 11 9 8 9 12 12 10 10 11 12 14 18 22 23 22 21 18 15 14 13 11 10 10 9 7
0 0 0 0 0 0 0 0 0 0 1 2 4 4 5 7 11 13 12 12 11 11 11 13 12 10 11 12 16 21 26 31 30 25 22 19 17 16 15 13 12 12 12 12
0 0 0 0 0 0 0 0 0 0 0 1 2 4 5 8 11 12 12 13 13 13 15 16 15 14 14 16 22 28 34 36 33 27 22 19 18 16 15 13 13 13 13 14
0 0 0 0 0 0 0 0 0 0 1 1 2 3 7 10 12 11 12 13 14 15 17 18 18 17 16 19 26 32 36 36 32 27 24 20 17 15 13 12 12 12 12 13
0 0 0 0 0 0 0 0 0 0 2 3 3 5 9 13 12 11 12 14 16 18 19 19 18 17 18 22 29 34 36 34 29 26 25 22 19 16 12 11 10 10 11 11
0 0 0 0 0 0 0 0 0 0 1 3 4 6 10 12 11 12 16 18 19 21 22 20 19 19 21 25 31 35 34 30 26 23 22 20 19 16 12 10 9 9 9 10
0 0 0 0 0 0 0 1 1 1 1 3 5 7 10 10 10 13 19 23 25 25 24 23 23 23 24 26 30 33 30 24 20 19 17 14 13 12 11 10 10 9 9 9
0 0 0 1 1 1 2 2 3 3 3 5 7 9 11 11 12 15 20 24 26 25 23 22 24 24 24 25 27 28 24 18 15 14 12 9 8 8 9 10 11 10 8 8
0 0 0 1 2 2 3 3 4 5 7 8 11 13 14 13 14 15 18 21 21 19 17 18 19 21 21 23 24 23 19 13 10 9 8 7 6 7 7 8 9 8 7 6
0 0 0 1 1 2 3 3 4 7 9 11 13 15 15 15 15 14 14 15 16 14 14 14 15 16 18 19 20 18 15 11 8 7 6 7 6 6 6 6 5 5 4 4
0 0 0 0 0 1 2 2 5 8 11 12 14 16 16 15 14 14 12 13 13 13 13 13 14 14 17 18 17 16 13 11 9 7 6 6 6 5 4 4 4 3 3 3
Wind_Speed
3 5 4 7 7 6 6 5 3 4 4 5 5 4 6 8 7 7 6 6 6 6 5 4 5 5 4 3 3 3 3 2 2 2 2 1 1 1 1 1 1 1 1 2
5 2 6 5 5 5 5 4 2 0 3 5 3 2 4 7 10 9 9 9 8 6 4 5 5 5 5 4 4 3 3 3 3 2 2 1 1 0 1 1 2 1 1 1
5 5 3 4 4 4 3 6 5 4 3 4 4 1 3 4 5 6 7 7 8 9 9 7 7 6 5 5 5 4 4 4 3 3 3 2 2 2 2 2 1 1 1 1
3 3 4 4 4 5 3 4 6 6 6 1 3 2 6 5 5 8 9 9 9 9 8 7 7 7 7 6 5 4 4 4 3 4 4 3 2 1 0 0 0 1 1 1
4 3 4 5 6 7 4 4 5 5 5 3 1 2 7 2 7 12 13 13 11 10 9 9 9 8 7 6 5 5 4 3 3 4 4 4 2 1 0 1 1 1 1 1
4 2 4 5 3 5 6 8 8 7 5 0 3 3 7 6 11 9 12 13 12 11 10 9 7 6 5 5 5 5 5 4 4 4 4 4 4 2 1 1 1 1 1 1
2 3 1 2 4 3 6 7 4 4 3 5 2 3 10 9 9 10 11 13 12 11 10 9 9 8 7 7 6 6 6 5 4 4 4 4 4 4 3 2 1 0 0 1
3 4 3 2 5 6 5 9 9 7 6 5 1 6 9 6 5 6 7 8 9 10 10 11 11 10 9 8 7 7 6 5 5 5 4 3 3 3 2 2 1 1 1 1
6 6 4 2 2 9 6 3 6 8 3 1 4 7 9 2 1 2 5 7 9 11 11 11 10 9 9 8 8 8 7 5 5 5 4 3 3 3 2 2 1 1 0 0
8 3 3 1 4 5 5 9 6 7 7 3 4 4 5 5 4 4 5 7 8 8 9 9 9 9 8 8 7 6 6 6 5 5 4 4 3 3 3 2 2 1 0 0
5 4 3 2 3 5 4 5 6 5 6 7 4 8 7 8 7 6 7 7 8 9 10 9 8 8 8 7 7 6 6 6 5 5 4 4 3 3 2 2 2 1 1 1
3 6 1 4 3 2 4 7 8 7 4 4 5 9 5 5 5 6 6 6 7 8 8 8 8 8 8 8 7 7 7 6 6 5 5 4 3 3 3 2 1 2 2 2
5 7 3 5 5 3 2 2 4 6 6 5 5 8 3 1 1 3 5 5 6 7 8 7 7 8 8 8 7 7 7 7 6 6 5 4 4 3 3 2 2 2 2 2
6 5 7 9 7 4 2 2 4 6 5 5 7 7 6 3 2 2 3 5 5 7 8 8 8 8 8 8 8 8 7 7 7 6 6 5 5 4 3 3 3 2 2 2
5 4 3 4 4 3 3 4 5 5 8 9 8 7 8 6 5 5 4 5 5 6 7 8 8 8 8 8 8 8 7 7 7 7 6 5 5 4 4 3 3 3 3 2
4 4 2 1 2 3 2 4 6 6 5 5 3 6 6 2 2 3 4 6 7 7 7 8 8 8 9 9 9 8 7 7 7 7 6 5 4 4 4 4 3 3 3 2
2 5 4 2 3 1 4 6 6 5 4 7 7 8 3 2 4 6 7 7 8 8 8 8 8 8 8 8 8 9 8 7 8 7 6 6 5 5 4 4 4 4 3 3
6 5 4 2 2 5 9 4 4 5 4 5 5 4 4 5 4 3 4 7 7 6 7 7 7 7 6 6 7 7 8 8 8 7 6 6 6 6 5 5 4 4 3 3
5 8 5 4 3 5 6 2 4 4 4 4 4 3 2 2 3 2 2 4 6 6 6 6 6 6 6 7 8 8 8 8 8 7 6 6 6 6 6 5 4 3 4 3
4 5 6 5 4 6 7 3 1 3 3 2 3 4 4 5 2 5 2 2 3 4 4 5 6 6 7 6 8 9 8 8 8 7 7 6 6 6 6 5 5 3 4 3
3 3 4 5 4 7 6 4 2 5 7 2 3 4 6 5 5 3 2 2 4 4 5 6 7 6 6 6 8 8 8 7 6 6 6 6 6 6 6 5 4 4 4 4
4 4 4 4 4 7 3 1 5 6 3 1 3 4 4 3 1 2 3 3 4 6 6 7 7 6 5 7 8 8 7 6 6 6 7 6 6 5 5 5 4 4 5 5
3 5 5 7 7 4 2 3 3 2 2 2 3 2 3 3 2 3 3 4 4 5 6 6 7 7 5 5 7 8 6 7 7 7 6 6 6 5 5 5 5 4 3 3
2 1 2 2 4 4 3 2 2 1 2 2 2 3 3 3 3 4 4 5 5 5 6 6 8 7 5 4 5 6 6 7 8 7 6 5 6 5 4 3 3 4 3 3
3 0 1 3 4 4 3 2 2 1 1 1 1 1 2 3 3 3 4 5 5 4 4 5 6 7 6 5 4 5 6 7 8 7 6 5 5 5 4 3 2 3 2 3
4 5 5 6 5 3 4 3 1 0 0 0 1 2 2 3 4 4 4 4 4 4 5 6 6 6 5 5 4 5 6 7 8 6 5 4 4 4 4 4 3 5 3 3
Wind_Direction
63 88 167 194 186 170 160 158 190 218 179 148 183 192 184 178 187 196 196 193 197 207 205 182 175 168 160 164 162 164 149 140 117 96 86 73 43 15 22 37 51 67 87 99
54 219 214 180 165 140 145 149 177 98 132 141 163 216 195 190 201 202 199 200 200 204 197 188 178 174 177 179 177 174 171 157 148 133 126 129 121 71 47 40 40 48 78 94
171 224 170 141 148 144 170 173 178 158 93 67 102 329 209 216 210 215 213 206 200 199 197 195 185 185 185 188 187 187 183 169 159 139 112 88 63 43 35 26 14 17 52 63
205 221 155 151 182 157 218 202 161 140 124 173 142 242 262 215 214 219 218 211 209 204 195 193 191 189 190 195 186 182 172 166 156 140 137 136 132 131 242 302 348 2 31 65
226 187 164 185 203 169 182 117 117 119 118 87 51 175 280 197 227 229 219 213 210 200 190 193 194 193 190 184 179 176 165 163 154 150 154 148 140 154 104 39 23 12 14 32
232 232 192 197 174 145 124 79 60 52 72 79 222 174 271 220 217 221 214 210 205 195 189 191 190 180 178 175 173 168 162 170 161 155 153 154 152 146 119 83 41 10 8 6
318 308 269 148 104 77 109 99 57 20 19 248 230 193 249 239 221 212 206 204 200 189 183 182 181 181 181 178 177 174 169 178 170 159 160 161 157 154 159 169 171 154 17 352
162 271 248 189 163 165 166 141 153 177 203 255 231 229 254 260 238 218 202 189 184 184 183 185 186 186 185 183 179 177 177 179 169 165 168 163 159 161 172 180 170 178 206 249
168 242 280 248 169 137 139 157 153 128 142 167 265 278 299 302 265 196 181 175 183 184 184 185 183 183 184 182 181 181 177 174 173 170 160 155 162 165 170 165 155 166 190 174
154 208 276 280 76 37 132 140 106 120 142 207 274 266 250 261 244 208 190 191 188 180 180 181 182 184 184 183 178 172 171 174 172 167 168 168 170 171 168 149 146 148 137 107
130 154 305 41 153 170 109 100 105 112 147 154 210 260 228 221 220 206 205 197 183 178 181 183 182 179 174 168 165 165 170 165 162 167 165 161 165 160 157 151 162 166 143 123
123 120 221 269 270 197 150 158 146 149 192 168 171 258 267 231 222 200 198 190 179 174 175 175 172 166 164 167 166 168 171 170 172 166 159 160 157 148 152 148 146 131 119 106
130 112 88 343 343 9 85 131 138 123 118 151 170 257 302 319 202 178 173 174 170 166 165 163 162 165 168 170 169 171 173 174 168 158 156 155 152 153 158 154 137 121 116 104
116 115 159 190 213 195 194 186 154 129 147 187 214 245 293 303 247 200 176 171 167 167 166 165 166 173 173 172 171 169 170 166 162 158 159 161 167 167 163 148 133 129 128 124
104 131 182 212 216 187 199 204 185 183 184 183 218 221 246 243 220 203 180 161 156 166 171 172 172 173 169 169 168 168 167 163 161 157 161 173 169 156 146 137 135 130 128 135
84 131 126 275 235 208 213 221 200 206 194 204 208 247 250 236 155 161 170 169 173 179 181 178 174 170 170 173 170 165 163 160 154 156 161 164 154 149 148 145 138 128 123 119
109 122 115 233 280 45 242 220 197 201 195 176 201 229 198 171 186 192 188 186 190 188 181 179 179 177 174 173 168 165 161 153 154 159 158 159 156 154 154 149 138 139 139 127
141 125 129 147 100 216 236 227 189 188 216 205 210 212 191 200 199 197 188 184 193 189 179 179 173 165 163 160 155 152 147 151 156 161 161 157 156 156 150 144 146 146 138 137
152 137 127 135 177 261 287 246 180 184 244 220 204 206 156 120 61 342 224 193 194 186 177 173 164 154 147 149 150 143 146 149 152 158 160 158 156 155 154 154 155 147 137 134
73 105 121 136 161 220 241 264 247 123 260 272 177 173 152 123 143 250 237 178 162 151 150 145 140 136 141 148 145 143 150 150 158 161 158 153 152 155 155 156 148 138 139 141
65 73 130 158 193 248 256 281 104 163 231 256 175 171 166 182 206 211 160 148 141 140 135 133 132 134 140 138 136 140 144 154 156 146 139 137 140 142 143 140 133 132 131 125
166 153 170 152 178 241 280 107 165 214 242 224 192 179 175 187 156 133 142 147 139 133 132 134 129 128 132 135 136 140 149 150 137 135 133 133 134 134 134 131 127 130 134 130
189 190 185 186 207 240 260 221 238 208 221 225 190 190 157 156 161 149 151 146 145 140 141 139 131 125 124 134 145 148 153 144 135 131 134 135 129 124 131 136 135 130 134 140
290 125 155 248 268 269 271 271 290 246 238 227 178 164 154 168 173 159 153 147 147 142 143 136 130 132 134 135 140 144 144 146 139 138 137 134 129 124 119 121 134 141 147 150
239 206 182 264 279 309 308 299 303 333 31 49 29 102 151 147 162 161 152 147 145 138 137 139 141 142 144 140 133 135 143 146 140 142 140 137 135 133 122 112 119 143 150 169
208 192 188 226 236 223 263 289 305 6 340 79 69 49 70 139 154 147 143 139 138 139 135 136 138 139 142 141 142 142 146 146 142 143 145 145 143 139 134 128 97 62 90 114